INTELSAT 19 (IS-19)

Last updated on Mon Sep 07 2026 00:02:58 GMT+0000 (Coordinated Universal Time)

1 38356U 12030A 26249.55334149 -.00000073 00000+0 00000+0 0 9997 2 38356 0.0311 268.6027 0003028 266.2373 176.0173 1.00270808 51260
UTC large
Height (km)
Speed (km/s)
/
Latitude / Longitude
Inclination (degrees)
Orbital Period (minutes)
Azimuth
Elevation
Range (km)
Doppler Factor

Next 0 passes for location: London (51.5072 / 0.1276)

No passes found over London.
INTELSAT 19 (IS-19)